This is the latest recevied weather packets stored in our database for station/object KE8RXN. If no packets are shown the sender has not sent any weather packets the latest 10 day(s).
| Time | Temp. | Humidity | Pressure | Rain* | Wind** | Luminosity | Snow |
|---|---|---|---|---|---|---|---|
| 1777755136 | 10.56° C | 40% | 1020.1 hPa | 0 mm | - | 568 W/m² | - |
| 1777754834 | 10° C | 41% | 1020.1 hPa | 0 mm | - | 587 W/m² | - |
| 1777754531 | 10.56° C | 41% | 1020.1 hPa | 0 mm | - | 582 W/m² | - |
| 1777754229 | 10.56° C | 42% | 1020.1 hPa | 0 mm | - | 602 W/m² | - |
| 1777753926 | 10° C | 43% | 1020.3 hPa | 0 mm | - | 611 W/m² | - |
| 1777753620 | 10.56° C | 42% | 1020.4 hPa | 0 mm | - | 563 W/m² | - |
| 1777753319 | 10° C | 43% | 1020.4 hPa | 0 mm | - | 595 W/m² | - |
| 1777753016 | 10° C | 42% | 1020.4 hPa | 0 mm | - | 585 W/m² | - |
| 1777752712 | 10° C | 43% | 1020.7 hPa | 0 mm | - | 539 W/m² | - |
| 1777752408 | 10° C | 44% | 1020.5 hPa | 0 mm | - | 514 W/m² | - |
| 1777752105 | 11.11° C | 43% | 1020.7 hPa | 0 mm | - | 572 W/m² | - |
| 1777751803 | 10° C | 42% | 1020.7 hPa | 0 mm | - | 621 W/m² | - |
| 1777751499 | 10.56° C | 45% | 1020.8 hPa | 0 mm | - | 534 W/m² | - |
| 1777751196 | 10° C | 44% | 1020.5 hPa | 0 mm | - | 646 W/m² | - |
| 1777750893 | 10° C | 45% | 1020.8 hPa | 0 mm | - | 633 W/m² | - |
| 1777750589 | 9.44° C | 45% | 1020.8 hPa | 0 mm | - | 668 W/m² | - |
| 1777750286 | 10° C | 45% | 1020.9 hPa | 0 mm | - | 675 W/m² | - |
| 1777749981 | 10° C | 45% | 1021 hPa | 0 mm | - | 661 W/m² | - |
| 1777749680 | 10° C | 45% | 1020.9 hPa | 0 mm | - | 678 W/m² | - |
| 1777749376 | 10° C | 47% | 1021.2 hPa | 0 mm | - | 696 W/m² | - |
| 1777749074 | 10° C | 46% | 1021.2 hPa | 0 mm | - | 786 W/m² | - |
| 1777748771 | 10° C | 46% | 1021.2 hPa | 0 mm | - | 889 W/m² | - |
| 1777748469 | 9.44° C | 47% | 1021.2 hPa | 0 mm | - | 804 W/m² | - |
| 1777748163 | 10° C | 46% | 1021.4 hPa | 0 mm | - | 756 W/m² | - |
| 1777747860 | 10° C | 47% | 1021.3 hPa | 0 mm | - | 827 W/m² | - |
* Rain latest hour (hover to see other rain measurements)
** Current wind speed in m/s (hover to see current wind gust speed)